Sarasota, FL

10:12 PM EDT on October 14, 2019 (GMT -0400)
Sarasota-bradenton

Weather History for KSRQ - August, 2019

Change the Weather History Date:

Sunday, August 18, 2019

  Actual Average Record
Temperature  
Mean Temperature 83 °F 82 °F  
Max Temperature 90 °F 90 °F 96 °F (1995)
Min Temperature 75 °F 74 °F 67 °F (1927)
Degree Days  
Heating Degree Days 0 0  
Month to date heating degree days 0 0  
Since 1 June heating degree days 0 0  
Since 1 July heating degree days 0 0  
Cooling Degree Days 18 17  
Month to date cooling degree days 325 306  
Year to date cooling degree days 2596 2068  
Since 1 June cooling degree days 1439 1317  
Growing Degree Days 32 (Base 50)    
Moisture  
Dew Point 75 °F    
Average Humidity 84    
Maximum Humidity 94    
Minimum Humidity 64    
Precipitation  
Precipitation 0.27 in 0.32 in 2.48 in (1999)
Month to date precipitation 10.65 5.27  
Year to date precipitation 39.18 34.46  
Sea Level Pressure  
Sea Level Pressure 30.07 in    
Wind  
Wind Speed 6 mph (SSW)    
Max Wind Speed 20 mph    
Max Gust Speed 25 mph    
Visibility 9 miles    
Events Rain , Thunderstorm    
T = Trace of Precipitation, MM = Missing Value Source: NWS Daily Summary

Daily Weather History Graph

Daily Weather History Graph

Search for Another Location

Airport or City:

Astronomy

Aug. 18, 2019 Rise Set
Actual Time 7:02 AM EDT 8:05 PM EDT
Civil Twilight 6:38 AM EDT 8:29 PM EDT
Nautical Twilight 6:09 AM EDT 8:58 PM EDT
Astronomical Twilight 5:39 AM EDT 9:27 PM EDT
Moon 10:13 PM EDT (8/18) 9:35 AM EDT (8/18)
Length of Visible Light 13h 51m
Length of Day
13h 02m
Waning Gibbous, 91% of the Moon is Illuminated
Aug 18
Waning Gibbous
Aug 23
Last Quarter
Aug 30
New
Sep 5
First Quarter
Sep 14
Full

Hourly Weather History & Observations

Time (EDT) Temp. Heat Index Dew Point Humidity Pressure Visibility Wind Dir Wind Speed Gust Speed Precip Events Conditions
12:53 AM 77.0 °F - 75.9 °F 96% 30.07 in 10.0 mi SE 5.8 mph - N/A   Clear
1:53 AM 77.0 °F - 75.9 °F 96% 30.07 in 10.0 mi SE 5.8 mph - N/A   Clear
2:42 AM 78.1 °F - 73.9 °F 87% 30.09 in 10.0 mi SSW 19.6 mph 24.2 mph N/A Thunderstorm Mostly Cloudy
2:49 AM 77.0 °F - 73.4 °F 89% 30.09 in 4.0 mi WSW 12.7 mph 25.3 mph N/A Thunderstorm Mostly Cloudy
2:51 AM 75.2 °F - 73.4 °F 94% 30.09 in 1.8 mi West 11.5 mph 25.3 mph 0.17 in Rain , Thunderstorm Rain
2:53 AM 75.9 °F - 73.0 °F 91% 30.09 in 1.5 mi WSW 10.4 mph 25.3 mph 0.21 in Rain , Thunderstorm Heavy Rain
3:01 AM 75.0 °F - 73.0 °F 94% 30.07 in 2.0 mi WNW 11.5 mph - 0.05 in Rain Heavy Rain
3:10 AM 75.0 °F - 73.0 °F 94% 30.07 in 6.0 mi WSW 5.8 mph - 0.06 in Rain Light Rain
3:17 AM 75.0 °F - 73.0 °F 94% 30.07 in 9.0 mi SW 3.5 mph - 0.06 in Rain Light Rain
3:53 AM 75.9 °F - 73.0 °F 91% 30.06 in 10.0 mi ESE 4.6 mph - 0.06 in   Partly Cloudy
4:53 AM 75.0 °F - 73.9 °F 96% 30.04 in 10.0 mi SSE 5.8 mph - N/A   Clear
5:53 AM 75.9 °F - 73.9 °F 94% 30.03 in 10.0 mi Calm Calm - 0.00 in Rain Light Rain
6:53 AM 75.0 °F - 73.9 °F 96% 30.04 in 10.0 mi ESE 5.8 mph - 0.00 in   Clear
7:53 AM 75.9 °F - 73.9 °F 94% 30.06 in 10.0 mi ESE 5.8 mph - N/A   Clear
8:53 AM 77.0 °F - 73.9 °F 90% 30.08 in 10.0 mi East 5.8 mph - N/A   Clear
9:53 AM 79.0 °F - 73.9 °F 84% 30.08 in 10.0 mi ESE 5.8 mph - N/A   Clear
10:53 AM 82.9 °F 90.2 °F 75.0 °F 77% 30.09 in 10.0 mi East 3.5 mph - N/A   Clear
11:53 AM 87.1 °F 96.3 °F 75.0 °F 67% 30.10 in 10.0 mi SSE 4.6 mph - N/A   Clear
12:53 PM 89.1 °F 101.4 °F 77.0 °F 67% 30.10 in 10.0 mi West 6.9 mph - N/A   Clear
1:53 PM 90.0 °F 102.5 °F 77.0 °F 65% 30.08 in 10.0 mi WSW 9.2 mph - N/A   Scattered Clouds
2:53 PM 89.1 °F 99.1 °F 75.0 °F 63% 30.06 in 10.0 mi SW 9.2 mph - N/A   Scattered Clouds
3:53 PM 88.0 °F 98.5 °F 75.9 °F 67% 30.05 in 10.0 mi WSW 8.1 mph - N/A   Scattered Clouds
4:53 PM 88.0 °F 98.5 °F 75.9 °F 67% 30.04 in 10.0 mi SW 8.1 mph - N/A   Scattered Clouds
5:53 PM 87.1 °F 97.3 °F 75.9 °F 69% 30.04 in 10.0 mi West 9.2 mph - N/A   Partly Cloudy
6:53 PM 84.9 °F 95.3 °F 77.0 °F 77% 30.04 in 10.0 mi NW 5.8 mph - N/A   Partly Cloudy
7:53 PM 84.0 °F 93.7 °F 77.0 °F 79% 30.05 in 10.0 mi NE 3.5 mph - N/A   Clear
8:53 PM 82.0 °F 91.0 °F 78.1 °F 88% 30.05 in 10.0 mi North 3.5 mph - N/A   Clear
9:53 PM 81.0 °F 88.6 °F 78.1 °F 91% 30.06 in 10.0 mi North 3.5 mph - N/A   Clear
10:53 PM 80.1 °F 85.8 °F 77.0 °F 90% 30.07 in 10.0 mi East 5.8 mph - N/A   Clear
11:53 PM 79.0 °F - 73.0 °F 82% 30.09 in 10.0 mi ESE 4.6 mph - N/A   Scattered Clouds